User: anonymous   Login
Location: Dillon
(41.1766°N, 107.0923°W)
Time: 00:52:07
(UTC+00:00)
Language:

Oscar 19 - Orbit

View from above orbital plane
View from above orbital plane
View from above satellite
View from above satellite

Ground track
Ground track

The orbit data is extracted from the following two-line orbital elements,

1 20442U 90005G   22178.50422084  .00000048  00000-0  34013-4 0  9998
2 20442  98.7943 143.5192 0012502 135.2679 224.9515 14.33066585694549
Epoch (UTC): 27 June 2022 12:06:04
Eccentricity: 0.0012502
inclination: 98.7943°
perigee height: 772 km
apogee height: 790 km
right ascension of ascending node: 143.5192°
argument of perigee: 135.2679°
revolutions per day: 14.33066585
mean anomaly at epoch: 224.9515°
orbit number at epoch: 69454

The dashed part of the orbit path shows where the satellite is in the earth's shadow,  

DLR